Location: Colebrook
(42.0017°N, 73.0973°W)
Time: 08:54:24
(UTC-04:00)

Courier 1B - Visible Passes

Search period start: 25 October 2021 00:00
Search period end: 04 November 2021 00:00
Orbit: 962 x 1209 km, 28.3° (Epoch: 24 October)

Date Brightness Start Highest point End Pass type
(mag) Time Alt. Az. Time Alt. Az. Time Alt. Az.
30 Oct 10.1 06:10:41 10° S 06:14:42 15° SSE 06:18:45 10° SE visible
31 Oct 10.2 05:18:56 10° S 05:21:06 11° SSE 05:23:18 10° SE visible
01 Nov 9.9 06:15:06 10° SSW 06:20:30 21° SSE 06:25:59 10° ESE visible
02 Nov 9.9 05:22:14 10° SSW 05:26:52 17° SSE 05:31:35 10° ESE visible
03 Nov 9.9 04:30:47 12° S 04:33:16 14° SSE 04:36:44 10° SE visible
03 Nov 9.6 06:20:20 10° SW 06:26:22 26° SSE 06:32:32 10° ESE visible
